Location: Washington
(38.8950°N, 77.0370°W)
Time: 18:11:16
(UTC-05:00)

IDEFIX/ARIANE 42P - Visible Passes

Search period start: 20 November 2017 00:00
Search period end: 30 November 2017 00:00
Orbit: 785 x 803 km, 98.2° (Epoch: 20 November)

Date Brightness Start Highest point End Pass type
(mag) Time Alt. Az. Time Alt. Az. Time Alt. Az.
20 Nov 2.6 05:31:19 10° NNE 05:36:31 82° ESE 05:41:42 10° S visible
21 Nov 3.7 05:03:13 10° NNE 05:08:09 44° E 05:13:04 10° S visible
21 Nov 5.6 18:02:10 10° SW 18:05:22 16° W 18:08:35 10° NW visible
22 Nov 4.9 04:35:32 10° NE 04:39:39 24° E 04:43:45 10° SSE visible
22 Nov 3.0 06:14:33 10° N 06:19:21 39° WNW 06:24:06 10° SW visible
22 Nov 4.8 17:32:15 10° SSW 17:36:48 30° W 17:41:22 10° NW visible
23 Nov 5.7 04:08:58 10° ENE 04:11:02 12° E 04:13:06 10° ESE visible
23 Nov 2.5 05:45:58 10° N 05:51:08 72° WNW 05:56:17 10° SSW visible
24 Nov 3.1 05:17:40 10° NNE 05:22:49 62° E 05:27:56 10° S visible
24 Nov 5.9 18:18:39 10° WSW 18:20:10 11° W 18:21:42 10° WNW visible
25 Nov 4.3 04:49:44 10° NNE 04:54:23 33° E 04:59:01 10° SSE visible
25 Nov 3.4 06:29:28 10° N 06:33:51 28° WNW 06:38:13 10° SW visible
25 Nov 5.3 17:47:34 10° SW 17:51:32 22° W 17:55:31 10° NW visible
26 Nov 5.2 04:22:24 10° NE 04:25:50 18° E 04:29:15 10° SE visible
26 Nov 2.7 06:00:41 10° N 06:05:42 51° WNW 06:10:42 10° SSW visible
26 Nov 4.2 17:18:10 10° SSW 17:23:03 40° W 17:27:56 10° NNW visible
27 Nov 2.6 05:32:14 10° NNE 05:37:27 86° ESE 05:42:38 10° SSW visible
28 Nov 3.6 05:04:05 10° NNE 05:09:05 46° E 05:14:02 10° S visible
28 Nov 5.6 18:03:18 10° SW 18:06:19 15° W 18:09:21 10° NW visible
29 Nov 4.8 04:36:23 10° NE 04:40:36 25° E 04:44:47 10° SSE visible
29 Nov 3.0 06:15:30 10° N 06:20:15 37° WNW 06:24:58 10° SW visible
29 Nov 4.8 17:33:17 10° SSW 17:37:44 29° W 17:42:14 10° NW visible
